Change the Weather History Date:

Thursday, November 15, 2012

  Actual Average Record
Temperature  
Mean Temperature -8 °F -  
Max Temperature 5 °F 6 °F 28 °F (2014)
Min Temperature -20 °F -1 °F -25 °F (2003)
Degree Days  
Heating Degree Days 72    
Moisture  
Dew Point -14 °F    
Average Humidity 65    
Maximum Humidity 84    
Minimum Humidity 52    
Precipitation  
Precipitation 0.00 in - - ()
Sea Level Pressure  
Sea Level Pressure 30.04 in    
Wind  
Wind Speed 11 mph (NNE)    
Max Wind Speed 18 mph    
Max Gust Speed 23 mph    
Visibility 7 miles    
Events      
Averages and records for this station are not official NWS values.
T = Trace of Precipitation, MM = Missing Value Source: NWS Daily Summary

Daily Weather History Graph

Daily Weather History Graph

Search for Another Location

Airport or City:

Trip Planner

Search our weather history database for the weather conditions in past years. The results will help you decide how hot, cold, wet, or windy it might be!

Date:

Astronomy

Nov. 15, 2012 Rise Set
Actual Time 10:25 AM AKST 3:16 PM AKST
Civil Twilight 9:04 AM AKST 4:37 PM AKST
Nautical Twilight 7:50 AM AKST 5:51 PM AKST
Astronomical Twilight 6:44 AM AKST 6:58 PM AKST
Moon 1:48 PM AKST (11/15) 4:05 PM AKST (11/15)
Length of Visible Light 7h 33m
Length of Day
4h 51m
Waxing Crescent, 6% of the Moon is Illuminated
Nov 15
Waxing Crescent
Nov 20
First Quarter
Nov 28
Full
Dec 6
Last Quarter
Dec 12
New

Hourly Weather History & Observations

Time (AKST) Temp. Windchill Dew Point Humidity Pressure Visibility Wind Dir Wind Speed Gust Speed Precip Events Conditions
12:16 AM -14.8 °F -40.5 °F -23.8 °F 64% 30.00 in 2.5 mi NE 18.4 mph 23.0 mph N/A   Overcast
12:36 AM -14.8 °F -33.5 °F -27.4 °F 53% 30.01 in 4.0 mi ENE 9.2 mph - N/A   Scattered Clouds
12:56 AM -14.8 °F -35.6 °F -25.6 °F 58% 30.00 in 9.0 mi NNE 11.5 mph - N/A   Clear
1:16 AM -16.6 °F -37.9 °F -27.4 °F 58% 30.01 in 8.0 mi North 11.5 mph - N/A   Clear
1:36 AM -16.6 °F -36.8 °F -29.2 °F 53% 30.01 in 5.0 mi North 10.4 mph - N/A   Clear
1:56 AM -16.6 °F -32.9 °F -27.4 °F 58% 30.01 in 6.0 mi North 6.9 mph - N/A   Clear
2:16 AM -18.4 °F -28.9 °F -27.4 °F 63% 30.01 in 7.0 mi North 3.5 mph - N/A   Clear
2:36 AM -18.4 °F -28.9 °F -29.2 °F 58% 30.01 in 10.0 mi North 3.5 mph - N/A   Clear
2:56 AM -18.4 °F -39.1 °F -29.2 °F 58% 30.01 in 10.0 mi NNE 10.4 mph - N/A   Clear
3:16 AM -20.2 °F -38.8 °F - N/A% 30.01 in 10.0 mi NNE 8.1 mph - N/A   Clear
3:36 AM -18.4 °F -36.6 °F -27.4 °F 63% 30.01 in 10.0 mi North 8.1 mph - N/A   Clear
3:56 AM -18.4 °F -37.9 °F -29.2 °F 58% 30.01 in 10.0 mi North 9.2 mph - N/A   Clear
4:16 AM -20.2 °F -38.8 °F -29.2 °F 63% 30.01 in 10.0 mi NNE 8.1 mph - N/A   Clear
4:36 AM -20.2 °F -40.1 °F - N/A% 30.01 in 10.0 mi North 9.2 mph - N/A   Clear
4:56 AM -20.2 °F -41.3 °F -27.4 °F 69% 30.01 in 10.0 mi North 10.4 mph - N/A   Clear
5:16 AM -20.2 °F -37.3 °F -29.2 °F 63% 30.02 in 10.0 mi NNW 6.9 mph - N/A   Clear
5:36 AM -18.4 °F -36.6 °F -29.2 °F 58% 30.02 in 10.0 mi North 8.1 mph - N/A   Clear
5:56 AM -20.2 °F -38.8 °F -27.4 °F 69% 30.02 in 10.0 mi NNW 8.1 mph - N/A   Clear
6:16 AM -18.4 °F -33.4 °F -27.4 °F 63% 30.02 in 10.0 mi NNW 5.8 mph - N/A   Scattered Clouds
6:36 AM -18.4 °F -36.6 °F -27.4 °F 63% 30.02 in 10.0 mi North 8.1 mph - N/A   Overcast
6:56 AM -16.6 °F -34.4 °F -25.6 °F 64% 30.02 in 8.0 mi North 8.1 mph - N/A   Overcast
7:16 AM -16.6 °F -38.9 °F -25.6 °F 64% 30.02 in 6.0 mi NNE 12.7 mph - N/A   Overcast
7:36 AM -14.8 °F -35.6 °F -23.8 °F 64% 30.02 in 4.0 mi North 11.5 mph - N/A   Overcast
7:56 AM -14.8 °F -35.6 °F -23.8 °F 64% 30.02 in 3.0 mi North 11.5 mph - N/A   Overcast
8:16 AM -14.8 °F -34.6 °F -23.8 °F 64% 30.03 in 3.0 mi North 10.4 mph - N/A   Overcast
8:36 AM -13.0 °F -31.3 °F -20.2 °F 70% 30.03 in 3.0 mi North 9.2 mph - N/A   Overcast
8:56 AM -13.0 °F -31.3 °F -22.0 °F 64% 30.03 in 2.5 mi North 9.2 mph - N/A   Overcast
9:16 AM -9.4 °F -25.6 °F -16.6 °F 71% 30.03 in 1.8 mi North 8.1 mph - N/A   Overcast
9:36 AM -5.8 °F -25.2 °F -9.4 °F 84% 30.03 in 2.0 mi NE 12.7 mph - N/A   Overcast
9:56 AM -4.0 °F -21.2 °F -13.0 °F 65% 30.04 in 1.2 mi NE 10.4 mph - N/A   Overcast
10:16 AM -2.2 °F -20.7 °F -11.2 °F 66% 30.04 in 2.5 mi NE 12.7 mph 20.7 mph N/A   Overcast
10:36 AM -0.4 °F -19.2 °F -9.4 °F 66% 30.04 in 1.2 mi NE 13.8 mph 18.4 mph N/A   Overcast
10:56 AM -0.4 °F -19.2 °F -9.4 °F 66% 30.05 in 1.8 mi NE 13.8 mph - N/A   Overcast
11:16 AM -0.4 °F -17.6 °F -9.4 °F 66% 30.04 in 2.5 mi NE 11.5 mph - N/A   Overcast
11:36 AM -0.4 °F -15.7 °F -9.4 °F 66% 30.04 in 4.0 mi NE 9.2 mph - N/A   Overcast
11:56 AM -0.4 °F -16.7 °F -7.6 °F 72% 30.04 in 5.0 mi NE 10.4 mph - N/A   Overcast
12:16 PM 1.4 °F -14.5 °F -7.6 °F 66% 30.04 in 10.0 mi NE 10.4 mph - N/A   Overcast
12:36 PM 1.4 °F -15.3 °F -7.6 °F 66% 30.04 in 9.0 mi NE 11.5 mph - N/A   Overcast
12:56 PM 1.4 °F -16.9 °F -7.6 °F 66% 30.04 in 8.0 mi NE 13.8 mph - N/A   Overcast
1:16 PM -0.4 °F -18.4 °F -7.6 °F 72% 30.04 in 3.0 mi NE 12.7 mph - N/A   Overcast
1:36 PM -0.4 °F -19.2 °F -7.6 °F 72% 30.04 in 5.0 mi NE 13.8 mph - N/A   Overcast
1:56 PM -0.4 °F -17.6 °F -7.6 °F 72% 30.04 in 4.0 mi NE 11.5 mph - N/A   Overcast
2:16 PM -0.4 °F -18.4 °F -7.6 °F 72% 30.04 in 5.0 mi ENE 12.7 mph - N/A   Overcast
2:36 PM 1.4 °F -16.9 °F -7.6 °F 66% 30.04 in 5.0 mi NE 13.8 mph - N/A   Overcast
2:56 PM 1.4 °F -16.9 °F -7.6 °F 66% 30.04 in 5.0 mi NE 13.8 mph - N/A   Overcast
3:16 PM 1.4 °F -17.6 °F -7.6 °F 66% 30.04 in 10.0 mi NE 15.0 mph 20.7 mph N/A   Overcast
3:36 PM 1.4 °F -16.9 °F -7.6 °F 66% 30.04 in 10.0 mi NE 13.8 mph - N/A   Overcast
3:56 PM 1.4 °F -16.1 °F -7.6 °F 66% 30.04 in 10.0 mi NE 12.7 mph - N/A   Overcast
4:16 PM 1.4 °F -16.9 °F -7.6 °F 66% 30.05 in 10.0 mi NE 13.8 mph 17.3 mph N/A   Overcast
4:36 PM 1.4 °F -16.1 °F -7.6 °F 66% 30.05 in 10.0 mi NE 12.7 mph 19.6 mph N/A   Overcast
4:56 PM 1.4 °F -14.5 °F -7.6 °F 66% 30.05 in 10.0 mi NE 10.4 mph - N/A   Overcast
5:16 PM 1.4 °F -15.3 °F -7.6 °F 66% 30.05 in 10.0 mi ENE 11.5 mph - N/A   Overcast
5:36 PM 1.4 °F -15.3 °F -7.6 °F 66% 30.05 in 10.0 mi NE 11.5 mph 17.3 mph N/A   Overcast
5:56 PM 3.2 °F -11.3 °F -7.6 °F 61% 30.05 in 7.0 mi NE 9.2 mph - N/A   Overcast
6:16 PM 3.2 °F -11.3 °F -7.6 °F 61% 30.05 in 10.0 mi North 9.2 mph - N/A   Overcast
6:36 PM 5.0 °F -5.6 °F -7.6 °F 56% 30.06 in 10.0 mi NNE 5.8 mph - N/A   Overcast
6:56 PM 5.0 °F -10.0 °F -9.4 °F 52% 30.06 in 10.0 mi North 10.4 mph - N/A   Overcast
7:16 PM 5.0 °F -8.1 °F -9.4 °F 52% 30.07 in 9.0 mi North 8.1 mph - N/A   Overcast
7:36 PM 5.0 °F -11.6 °F -7.6 °F 56% 30.07 in 8.0 mi NNE 12.7 mph - N/A   Overcast
7:56 PM 3.2 °F -13.9 °F -9.4 °F 56% 30.07 in 10.0 mi NE 12.7 mph - N/A   Overcast
8:16 PM 3.2 °F -11.3 °F -7.6 °F 61% 30.08 in 7.0 mi NE 9.2 mph - N/A   Overcast
8:36 PM 3.2 °F -10.3 °F -5.8 °F 66% 30.08 in 5.0 mi NE 8.1 mph - N/A   Overcast
8:56 PM 3.2 °F -10.3 °F -5.8 °F 66% 30.08 in 5.0 mi NE 8.1 mph - N/A   Overcast
9:16 PM 3.2 °F -13.1 °F -4.0 °F 72% 30.08 in 4.0 mi NE 11.5 mph - N/A   Overcast
9:36 PM 3.2 °F -13.1 °F -4.0 °F 72% 30.08 in 2.5 mi NNE 11.5 mph - N/A   Overcast
9:56 PM 3.2 °F -12.2 °F -4.0 °F 72% 30.08 in 3.0 mi NNE 10.4 mph - N/A   Overcast
10:16 PM 3.2 °F -11.3 °F -2.2 °F 78% 30.08 in 3.0 mi NE 9.2 mph - N/A   Overcast
10:36 PM 3.2 °F -13.9 °F -5.8 °F 66% 30.09 in 5.0 mi NE 12.7 mph - N/A   Overcast
10:56 PM 3.2 °F -14.6 °F -4.0 °F 72% 30.09 in 6.0 mi NE 13.8 mph - N/A   Overcast
11:16 PM 3.2 °F -13.1 °F -5.8 °F 66% 30.10 in 5.0 mi NNE 11.5 mph 16.1 mph N/A   Overcast
11:36 PM 3.2 °F -15.3 °F -5.8 °F 66% 30.10 in 4.0 mi NNE 15.0 mph 19.6 mph N/A   Overcast
11:56 PM 3.2 °F -15.3 °F -5.8 °F 66% 30.11 in 1.8 mi NE 15.0 mph - N/A   Overcast